Location: Pitton
(51.0667°N, 1.7000°W)
Time: 10:01:44
(UTC+00:00)

SL-14 R/B - Pass Details

Date: 17 September 2019
Orbit: 517 x 556 km, 82.4° (Epoch: 15 October)

Event Time Altitude Azimuth Distance (km) Brightness Sun altitude
Rises 20:25:07 0° 356° (N) 2,735 7.4 -19.9°
Reaches altitude 10° 20:27:30 10° 7° (N) 1,830 6.3 -20.2°
Enters shadow 20:30:22 29° 49° (NE) 1,026 4.5 -20.6°
